Regional Weather Roundup
Issued by NWS

Home | Current Version | Previous Version | Graphics & Text | Print | Product List | Glossary On
Versions: 1 2 3 4 5 6 7 8 9 10 11 12 13 14 15 16 17 18 19 20 21 22 23 24 25 26 27 28 29 30 31 32 33 34 35 36 37 38 39 40 41 42 43 44 45 46 47 48 49 50
000
ASUS43 KDTX 252201
RWRMI
MICHIGAN HOURLY REGIONAL WEATHER ROUNDUP
NATIONAL WEATHER SERVICE DETROIT/PONTIAC MI
500 PM EST SUN JAN 25 2015

NOTE: "FAIR" INDICATES FEW OR NO CLOUDS BELOW 12,000 FEET WITH NO
SIGNIFICANT WEATHER AND/OR OBSTRUCTION TO VISIBILITY.

MIZ047>049-052>055-059>063-066>070-074>076-081>083-252300-
SOUTHEAST LOWER MICHIGAN

CITY           SKY/WX    TMP DP  RH WIND       PRES   REMARKS
ADRIAN         CLOUDY    24  14  65 E14G26    29.88R WCI  12
ALMA           MOCLDY    20  13  74 NE15G23   29.98R WCI   6
ANN ARBOR      CLOUDY    24  12  60 NE14      29.90R WCI  12
BAD AXE        CLOUDY    18  10  72 NE8       30.00R WCI   8
CARO           PTCLDY    20  10  64 CALM      29.99R
DETROIT CITY   MOCLDY    22   7  52 NE13G22   29.94R WCI  10
DETROIT        CLOUDY    23  11  60 NE13G21   29.92R WCI  11
FLINT          MOCLDY    22   8  55 E18       29.96R WCI   7
GROSSE ILE     CLOUDY    21  10  63 NE16      29.91R WCI   7
HILLSDALE      LGT SNOW  24  18  80 NE14G20   29.84R WCI  11
HOWELL         CLOUDY    22  11  64 NE9       29.91R WCI  11

CITY           SKY/WX    TMP DP  RH WIND       PRES   REMARKS
JACKSON        CLOUDY    25  13  60 NE10G18   29.88R WCI  15
LAMBERTVILLE   LGT SNOW  23  14  68 NE9       29.90R WCI  13
LANSING        MOCLDY    23  12  62 NE14      29.93R WCI  11
LAPEER         FAIR      18   8  64 NE10      29.97R WCI   6
MASON          CLOUDY    22  13  67 NE15G21   29.91R WCI   9
MONROE         CLOUDY    21  12  68 NE13      29.89R WCI   9
MT. CLEMENS    MOCLDY    20   9  62 NE15      29.93R WCI   6
PONTIAC        CLOUDY    20   6  55 NE14      29.91R WCI   7
PORT HOPE        N/A     19  11  70 NE17      29.99F WCI   4
PORT HURON     MOCLDY    19  10  68 N14G22    29.97S WCI   6
TRI CITIES     MOCLDY    22  11  62 NE21      30.00R WCI   6
TROY           MOCLDY    23   8  51 NE13G18   29.96R WCI  12
SAGINAW HB     PTCLDY    21  12  68 NE15      30.00R WCI   8
$$
MIZ043>046-050>051-056>058-064>065-071>073-077>080-252300-
SOUTHWEST LOWER MICHIGAN

CITY           SKY/WX    TMP DP  RH WIND       PRES   REMARKS
BATTLE CREEK   CLOUDY    26  12  55 E9        29.88R WCI  17
BENTON HARBOR  CLOUDY    25  17  72 NE8       29.88R WCI  16
BIG RAPIDS     PTCLDY    23   7  50 E10       29.95R WCI  12
COLDWATER      LGT SNOW  24  18  77 NE18      29.85R WCI  10
FREMONT        FAIR      23   4  45 NE10      29.95R WCI  12
HOLLAND        MOCLDY    25  11  55 NE9       29.93R WCI  15
GRAND RAPIDS   MOCLDY    21  12  68 NE16      29.93R WCI   7
IONIA          FAIR      22  12  66 NE16G22   29.93R WCI   8
KALAMAZOO      CLOUDY    25  13  60 NE7G20    29.88R WCI  17
LUDINGTON      PTCLDY    22   3  42 N6        29.99R WCI  15
MARSHALL       CLOUDY    24  14  66 NE7       29.87R WCI  15
MOUNT PLEASANT CLEAR     22   8  55 NE8       29.98R WCI  12
MUSKEGON       PTCLDY    25   9  50 E16       29.95R WCI  12
SOUTH HAVEN    CLOUDY    26  15  63 NE12G20   29.89R WCI  15
$$
MIZ016>042-252300-
NORTHERN LOWER MICHIGAN

CITY           SKY/WX    TMP DP  RH WIND       PRES   REMARKS
ALPENA         PTCLDY    13   5  70 NE6       30.06R WCI   4
BEAVER ISLAND  PTCLDY    12  -3  51 CALM      30.07S
BELLAIRE       CLEAR     19   4  52 N3        30.04S
CADILLAC       PTCLDY    17   1  49 NE9       29.94S WCI   5
CHARLEVOIX     PTCLDY    15   7  72 N5        30.08S WCI   7
FRANKFORT      PTCLDY    18   5  55 NE5       30.02S WCI  11
GAYLORD        PTCLDY    14   0  53 NE3       29.97S
GRAYLING       PTCLDY    16   3  56 N9        29.99S WCI   4
HARBOR SPRINGS CLEAR     15   4  60 NE5       30.04S WCI   8
HOUGHTON LAKE  PTCLDY    17   3  54 NE8       29.98R WCI   7
MANISTEE       PTCLDY    19   1  45 NE13      30.01R WCI   7
OSCODA         FLURRIES  17  10  72 N12       30.03R WCI   4
PELLSTON       CLEAR     14   3  61 NE8       30.06S WCI   3
ROGERS CITY    MOCLDY    14   8  76 NE5       30.07S WCI   6
TRAVERSE CITY  MOCLDY    19   5  54 NE7       30.02S WCI  10
$$
MIZ007>008-015-252300-
EASTERN UPPER MICHIGAN

CITY           SKY/WX    TMP DP  RH WIND       PRES   REMARKS
KINROSS        PTCLDY    12   0  57 N5        30.06S WCI   4
MACKINAC ISLAN CLEAR     13  -1  53 CALM      30.06S
S. S. MARIE    FAIR       9  -5  53 NW3       30.08R
MUNISING         N/A     14   6  70 CALM      30.07S
$$
MIZ004>006-011>014-085-252300-
CENTRAL UPPER MICHIGAN

CITY           SKY/WX    TMP DP  RH WIND       PRES   REMARKS
MANISTIQUE     CLEAR     17   4  57 N5        30.06S WCI  10
ESCANABA       CLEAR     19   7  58 NE7       30.06S WCI  10
MENOMINEE      CLEAR     18   7  62 E10       30.06R WCI   6
SAWYER-GWINN   FLURRIES  16  10  79 NE5       30.03R WCI   9
$$
MIZ001>003-009>011-084-252300-
WESTERN UPPER MICHIGAN

CITY           SKY/WX    TMP DP  RH WIND       PRES   REMARKS
IRON MOUNTAIN  CLEAR     20   6  55 NW3       30.02S
HOUGHTON       PTCLDY    14   4  64 SE8       30.03F WCI   3
COPPER HARBOR    N/A     16   4  59 CALM      30.09S
IRONWOOD       CLOUDY    18   7  62 CALM      29.99F
$$

ABBREVIATIONS USED IN REMARKS
   TC - TEMPERATURE IN CELSIUS
  WCI - WIND CHILL INDEX
   HX - HEAT INDEX
  VSB - VISIBILITY



USA.gov is the U.S. government's official web portal to all federal, state and local government web resources and services.